Regional Weather Roundup
Issued by NWS

Home | Current Version | Previous Version | Text Only | Print | Product List | Glossary Off
Versions: 1 2 3 4 5 6 7 8 9 10 11 12 13 14 15 16 17 18 19 20 21 22 23 24 25 26 27 28 29 30 31 32 33 34 35 36 37 38 39 40 41 42 43 44 45 46 47 48 49 50

000
ASUS45 KABQ 011110
RWRNM
WEATHER ROUNDUP FOR NEW MEXICO
NATIONAL WEATHER SERVICE ALBUQUERQUE NM
500 AM MDT MON SEP 01 2014

NOTE: "FAIR" MEANS FEW OR NO CLOUDS BELOW 12,000 FEET AGL WITH NO
       SIGNIFICANT WEATHER OR OBSTRUCTIONS TO VISION.

      THIS PRODUCT IS RELEASED AS TWO VERSIONS.  ONE VERSION NEAR
      THE TOP OF THE HOUR CONTAINING PRELIMINARY DATA FROM ALBUQUERQUE
      AND OTHER STATIONS.  A FINAL VERSION WITH ADDITIONAL DATA IS
      ISSUED ABOUT 10 MINUTES AFTER THE HOUR.

NMZ501-503-504-510>518-011200-
NORTHWEST PLATEAU/NORTHCENTRAL MOUNTAINS

CITY           SKY/WX    TMP DP  RH WIND       PRES   REMARKS
FARMINGTON     CLEAR     57  37  47 NW5       30.05R
LOS ALAMOS     CLEAR     67  35  31 W9G18     30.17S
SANTA FE       CLEAR     56  37  49 N3        30.12S
ANGEL FIRE     FAIR      41  32  72 CALM      30.25S

$$
NMZ402-403-502-505>509-011200-
WESTCENTRAL MOUNTAINS/SOUTHWEST MOUNTAINS

CITY           SKY/WX    TMP DP  RH WIND       PRES   REMARKS
GALLUP         CLEAR     62  36  37 S6        30.18S
SILVER CITY    CLEAR     63  37  39 NW13      30.13S

$$
NMZ407-409-411-412-011200-
SOUTHERN DESERTS

CITY           SKY/WX    TMP DP  RH WIND       PRES   REMARKS
LORDSBURG      FAIR      63  37  39 MISG      30.04S
DEMING         CLEAR     66  41  40 W8        30.02S
LAS CRUCES     CLEAR     69  37  31 W8        30.02F
HOLLOMAN AFB   CLEAR     70  40  33 SE6       29.97R
ALAMOGORDO     CLEAR     66  37  34 CALM      29.99S
T OR C         CLEAR     71  41  33 SE5       30.04R

$$
NMZ519>523-011200-
CENTRAL VALLEYS/CENTRAL HIGHLANDS

CITY           SKY/WX    TMP DP  RH WIND       PRES   REMARKS
ALBUQUERQUE    CLEAR     66  40  38 SE6       30.08S
DOUBLE EAGLE   CLEAR     69  37  31 CALM      30.12R
MORIARTY ARPT  FAIR      58  39  48 W6        30.14S
CLINES CORNERS CLEAR     57  36  45 NW10      30.17R
BELEN          FAIR      69  38  32 SW3       30.08R
SOCORRO        FAIR      74  40  29 CALM      30.04S

$$
NMZ524>526-539-540-011200-
SOUTHCENTRAL MOUNTAINS

CITY           SKY/WX    TMP DP  RH WIND       PRES   REMARKS
RUIDOSO        CLEAR     63  36  36 CALM      30.20S

$$
NMZ527>531-011200-
NORTHEAST HIGHLANDS/NORTHEAST PLAINS

CITY           SKY/WX    TMP DP  RH WIND       PRES   REMARKS
LAS VEGAS      CLEAR     59  34  39 E5        30.14R
RATON          CLEAR     53  35  50 E7        30.06R
CLAYTON        CLEAR     61  50  67 N12       30.02R

$$
NMZ532>537-011200-
EASTCENTRAL PLAINS

CITY           SKY/WX    TMP DP  RH WIND       PRES   REMARKS
TUCUMCARI      CLEAR     67  53  61 NE10      29.94R
CANNON AFB     CLEAR     65  58  77 SW8       29.95S
CLOVIS AIRPORT   N/A     70  57  64 SW12      29.97S

$$
NMZ028-029-538-011200-
SOUTHEAST PLAINS

CITY           SKY/WX    TMP DP  RH WIND       PRES   REMARKS
ROSWELL        CLEAR     66  46  48 SW5       29.92R
CARLSBAD       CLEAR     72  58  61 CALM      29.90R


$$



USA.gov is the U.S. government's official web portal to all federal, state and local government web resources and services.